Details for Ryanair at EHEH




Go Back


Latest METAR
Local Time

EHEH 180625Z AUTO 21008KT 9999 NCD 15/12 Q1022 BLU 22005KT CAVOK
18/08/2018, 08:28:47

Description
Results
Ryanair Logo
Number of Pilots based at EHEH
0 Pilots Based here
Number of Ryanair Flights Departed from EHEH
3 Flights Departed
Number of Ryanair Flights Arrived at EHEH
4 Flights Arrived
Number of Ryanair Schedules Departing from EHEH
106 Schedules
Number of Ryanair Schedules Arriving at EHEH
103 Schedules
Number of Ryanair Schedules Departing from EHEH availible today
23 Schedules Today
Number of Ryanair Schedules Arriving at EHEH availible today
23 Schedules Today
Average Landing Rate at EHEH
-146 fpm
Ryanair Average Landing Rate at EHEH
-183 fpm
Total Fuel Purchased at EHEH by Ryanair
15,448.46 kgs / 34,057.67 lbs

Pilots Based at EHEH


Pilot ID
Pilot Name
Pilot Rank
No. of Flights
No. of Flying Hours
There are no pilots assigned to this hub!   Will you be the first?
Content